This is the latest recevied weather packets stored in our database for station/object DG7FDL-7. If no packets are shown the sender has not sent any weather packets the latest 10 day(s).
| Time | Temp. | Humidity | Pressure | Rain* | Wind** | Luminosity | Snow |
|---|---|---|---|---|---|---|---|
| 1777451648 | 18.89° C | 30% | 1027.2 hPa | - | - | - | - |
| 1777450758 | 19.44° C | 30% | 1027.1 hPa | - | - | - | - |
| 1777449847 | 19.44° C | 30% | 1027.1 hPa | - | - | - | - |
| 1777448947 | 20.56° C | 32% | 1026.9 hPa | - | - | - | - |
| 1777448047 | 22.22° C | 36% | 1026.9 hPa | - | - | - | - |
| 1777446247 | 18.89° C | 38% | 1026.7 hPa | - | - | - | - |
| 1777444447 | 18.89° C | 39% | 1026.6 hPa | - | - | - | - |
| 1777443558 | 18.89° C | 39% | 1026.6 hPa | - | - | - | - |
| 1777442647 | 19.44° C | 39% | 1026.4 hPa | - | - | - | - |
| 1777441747 | 18.89° C | 39% | 1026.3 hPa | - | - | - | - |
| 1777440847 | 19.44° C | 38% | 1026.3 hPa | - | - | - | - |
| 1777439958 | 19.44° C | 38% | 1026.1 hPa | - | - | - | - |
| 1777439047 | 19.44° C | 38% | 1026.1 hPa | - | - | - | - |
| 1777438147 | 18.89° C | 39% | 1025.9 hPa | - | - | - | - |
| 1777437247 | 19.44° C | 39% | 1025.8 hPa | - | - | - | - |
| 1777436361 | 19.44° C | 39% | 1025.7 hPa | - | - | - | - |
| 1777435449 | 19.44° C | 39% | 1025.7 hPa | - | - | - | - |
| 1777434546 | 19.44° C | 39% | 1025.5 hPa | - | - | - | - |
| 1777433649 | 19.44° C | 39% | 1025.4 hPa | - | - | - | - |
| 1777432748 | 19.44° C | 39% | 1025.1 hPa | - | - | - | - |
| 1777430047 | 20° C | 39% | 1025.1 hPa | - | - | - | - |
| 1777429148 | 20° C | 39% | 1025.1 hPa | - | - | - | - |
| 1777428253 | 20° C | 38% | 1024.9 hPa | - | - | - | - |
| 1777427352 | 20° C | 38% | 1025 hPa | - | - | - | - |
| 1777426450 | 20° C | 38% | 1024.9 hPa | - | - | - | - |
* Rain since midnight (hover to see other rain measurements)
** Current wind speed in m/s (hover to see current wind gust speed)